226P/Pigott-LINEAR-Kowalski (2016)

Japanese version
Home page
Updated on December 17, 2017

---------------------------------------------------------------------

* Profile

* Pictures

* Orbital Elements

Epoch 2016 July 31.0 TT = JDT 2457600.5
T 2016 Sept. 5.14749 TT                                 MPCW
q   1.7763664            (2000.0)            P               Q
n   0.13460936     Peri.  341.12745     +0.74434638     -0.36058936
a   3.7706759      Node    54.00654     +0.66634429     +0.34562785
e   0.5288997      Incl.   44.00334     +0.04397460     +0.86632367
P   7.32
From 253 observations 2003 Jan. 5-2016 Aug. 15, mean residual 0".7.
     Nongravitational parameters A1 = -0.35, A2 = +0.0138.

* Finding Charts

* Magnitudes Graph

        m1 = 7.0 + 5 log d + 30 log r(t - 15)

---------------------------------------------------------------------

The orbital elements are published on M.P.E.C. 2016-Q04.
The charts are made with StellaNavigator Ver.10 (AstroArts).
The magnitudes graphs are made with Comet for Windows.

---------------------------------------------------------------------

Copyright(C) Seiichi Yoshida (comet@aerith.net). All rights reserved.